Louisa, VA

1:46 AM EDT on September 25, 2016 (GMT -0400)
Louisa County-Freeman

Weather History for KLKU - October, 2012

Change the Weather History Date:

Monday, October 29, 2012

  Actual Average (KCHO) Record (KCHO)
Temperature  
Mean Temperature 46 °F 52 °F  
Max Temperature 51 °F 64 °F 86 °F (1927)
Min Temperature 42 °F 41 °F 25 °F (2001)
Degree Days  
Heating Degree Days 18 13  
Month to date heating degree days 264  
Since 1 July heating degree days 322  
Cooling Degree Days 0 0  
Month to date cooling degree days 12  
Year to date cooling degree days 1033  
Moisture  
Dew Point 45 °F    
Average Humidity 89    
Maximum Humidity 94    
Minimum Humidity 87    
Precipitation  
Precipitation 2.07 in 0.10 in 1.19 in (2012)
Month to date precipitation 2.92  
Year to date precipitation 35.54  
Sea Level Pressure  
Sea Level Pressure 29.31 in    
Wind  
Wind Speed 12 mph (NW)    
Max Wind Speed 20 mph    
Max Gust Speed 32 mph    
Visibility 9 miles    
Events      
T = Trace of Precipitation, MM = Missing Value Source: NWS Daily Summary

Daily Weather History Graph

Daily Weather History Graph

Search for Another Location

Airport or City:

Trip Planner

Search our weather history database for the weather conditions in past years. The results will help you decide how hot, cold, wet, or windy it might be!

Date:

Astronomy

Oct. 29, 2012 Rise Set
Actual Time 7:34 AM EDT 6:15 PM EDT
Civil Twilight 7:07 AM EDT 6:42 PM EDT
Nautical Twilight 6:36 AM EDT 7:13 PM EDT
Astronomical Twilight 6:06 AM EDT 7:44 PM EDT
Moon 6:07 PM EDT (10/29) 7:23 AM EDT (10/29)
Length of Visible Light 11h 34m
Length of Day
10h 40m
Full, 100% of the Moon is Illuminated
Oct 29
Full
Oct 29
Full
Nov 6
Last Quarter
Nov 13
New
Nov 20
First Quarter

Hourly Weather History & Observations

Time (EDT) Temp. Windchill Dew Point Humidity Pressure Visibility Wind Dir Wind Speed Gust Speed Precip Events Conditions
12:15 AM 51.8 °F - 48.2 °F 88% 29.56 in 10.0 mi North 12.7 mph 21.9 mph N/A   Overcast
12:35 AM 51.8 °F - 48.2 °F 88% 29.55 in 7.0 mi NNW 15.0 mph 21.9 mph N/A   Overcast
12:55 AM 51.8 °F - 48.2 °F 88% 29.55 in 10.0 mi NNW 11.5 mph 19.6 mph 0.01 in   Overcast
1:15 AM 51.8 °F - 48.2 °F 88% 29.55 in 7.0 mi North 10.4 mph 21.9 mph N/A   Overcast
1:35 AM 51.8 °F - 48.2 °F 88% 29.54 in 5.0 mi NNW 12.7 mph 18.4 mph 0.04 in   Overcast
1:55 AM 51.8 °F - 48.2 °F 88% 29.54 in 3.0 mi NNW 9.2 mph - 0.06 in   Overcast
2:15 AM 51.8 °F - 48.2 °F 88% 29.54 in 3.0 mi NNW 11.5 mph - 0.02 in   Overcast
2:35 AM 51.8 °F - 48.2 °F 88% 29.54 in 2.5 mi North 9.2 mph 18.4 mph 0.05 in   Overcast
2:55 AM 51.8 °F - 48.2 °F 88% 29.53 in 3.0 mi NNW 11.5 mph 19.6 mph 0.08 in   Overcast
3:15 AM 51.8 °F - 48.2 °F 88% 29.52 in 4.0 mi NNW 9.2 mph 17.3 mph 0.02 in   Overcast
3:35 AM 51.8 °F - 48.2 °F 88% 29.50 in 5.0 mi NNW 12.7 mph 18.4 mph 0.03 in   Overcast
3:55 AM 51.8 °F - 48.2 °F 88% 29.50 in 5.0 mi NNW 11.5 mph 23.0 mph 0.04 in   Overcast
4:15 AM 51.8 °F - 48.2 °F 88% 29.51 in 5.0 mi NNW 11.5 mph 21.9 mph 0.01 in   Overcast
4:35 AM 50.0 °F - 48.2 °F 94% 29.51 in 4.0 mi NNW 10.4 mph 18.4 mph 0.04 in   Overcast
4:55 AM 50.0 °F - 48.2 °F 94% 29.50 in 4.0 mi North 10.4 mph 21.9 mph 0.05 in   Overcast
5:15 AM 50.0 °F - 48.2 °F 94% 29.50 in 7.0 mi North 8.1 mph 24.2 mph 0.01 in   Overcast
5:35 AM 50.0 °F - 48.2 °F 94% 29.49 in 10.0 mi NNW 12.7 mph 20.7 mph 0.01 in   Overcast
5:55 AM 50.0 °F - 46.4 °F 87% 29.48 in 10.0 mi NNW 13.8 mph 18.4 mph 0.01 in   Overcast
6:15 AM 50.0 °F - 46.4 °F 87% 29.48 in 10.0 mi NNW 8.1 mph 17.3 mph N/A   Overcast
6:55 AM 50.0 °F - 46.4 °F 87% 29.47 in 10.0 mi NNW 9.2 mph 20.7 mph N/A   Overcast
7:15 AM 50.0 °F - 46.4 °F 87% 29.47 in 10.0 mi NNW 9.2 mph - 0.01 in   Overcast
7:35 AM 50.0 °F - 46.4 °F 87% 29.46 in 10.0 mi NNW 11.5 mph 18.4 mph 0.02 in   Overcast
7:55 AM 50.0 °F - 46.4 °F 87% 29.46 in 10.0 mi NNW 10.4 mph 16.1 mph 0.03 in   Overcast
8:15 AM 50.0 °F - 46.4 °F 87% 29.46 in 10.0 mi NNW 12.7 mph 19.6 mph 0.02 in   Overcast
8:35 AM 50.0 °F - 46.4 °F 87% 29.46 in 10.0 mi NNW 11.5 mph 17.3 mph 0.02 in   Overcast
8:55 AM 50.0 °F - 46.4 °F 87% 29.45 in 10.0 mi NW 11.5 mph 17.3 mph 0.03 in   Overcast
9:15 AM 50.0 °F - 46.4 °F 87% 29.44 in 10.0 mi NW 12.7 mph 23.0 mph N/A   Overcast
9:35 AM 50.0 °F - 46.4 °F 87% 29.44 in 10.0 mi NW 10.4 mph 17.3 mph 0.02 in   Overcast
9:55 AM 48.2 °F - 46.4 °F 93% 29.42 in 10.0 mi NNW 11.5 mph 18.4 mph 0.03 in   Overcast
10:15 AM 48.2 °F - 46.4 °F 93% 29.42 in 10.0 mi NW 9.2 mph 20.7 mph 0.01 in   Overcast
10:35 AM 48.2 °F - 46.4 °F 93% 29.40 in 10.0 mi NW 11.5 mph - 0.02 in   Overcast
10:55 AM 48.2 °F - 46.4 °F 93% 29.40 in 10.0 mi NW 10.4 mph 18.4 mph 0.03 in   Overcast
11:15 AM 48.2 °F - 46.4 °F 93% 29.39 in 10.0 mi NW 8.1 mph 21.9 mph 0.01 in   Overcast
11:35 AM 48.2 °F - 44.6 °F 87% 29.37 in 10.0 mi NW 10.4 mph 18.4 mph 0.03 in   Overcast
11:55 AM 48.2 °F - 44.6 °F 87% 29.36 in 10.0 mi NW 11.5 mph 19.6 mph 0.05 in   Overcast
12:15 PM 48.2 °F - 44.6 °F 87% 29.35 in 10.0 mi NW 10.4 mph 20.7 mph 0.05 in   Overcast
12:35 PM 48.2 °F - 44.6 °F 87% 29.33 in 10.0 mi NW 16.1 mph 23.0 mph 0.09 in   Overcast
12:55 PM 48.2 °F - 44.6 °F 87% 29.31 in 10.0 mi WNW 12.7 mph - 0.13 in   Overcast
1:15 PM 48.2 °F - 44.6 °F 87% 29.29 in 10.0 mi WNW 15.0 mph 19.6 mph 0.05 in   Overcast
1:55 PM 46.4 °F 41.1 °F 44.6 °F 93% 29.26 in 10.0 mi West 11.5 mph 17.3 mph 0.15 in   Overcast
2:15 PM 46.4 °F 41.5 °F 42.8 °F 87% 29.25 in 10.0 mi WNW 10.4 mph 18.4 mph 0.06 in   Overcast
2:35 PM 46.4 °F 40.7 °F 42.8 °F 87% 29.22 in 10.0 mi WNW 12.7 mph - 0.13 in   Overcast
2:55 PM 44.6 °F 38.8 °F 42.8 °F 93% 29.20 in 10.0 mi West 11.5 mph 20.7 mph 0.22 in   Overcast
3:15 PM 44.6 °F 37.8 °F 42.8 °F 93% 29.19 in 10.0 mi WNW 15.0 mph 21.9 mph 0.13 in   Overcast
3:35 PM 44.6 °F 37.4 °F 42.8 °F 93% 29.18 in 10.0 mi West 16.1 mph 25.3 mph 0.20 in   Overcast
3:55 PM 44.6 °F 36.6 °F 41.0 °F 87% 29.16 in 10.0 mi West 19.6 mph 24.2 mph 0.26 in   Overcast
4:15 PM 44.6 °F 37.4 °F 41.0 °F 87% 29.14 in 10.0 mi West 16.1 mph 24.2 mph 0.05 in   Overcast
4:35 PM 44.6 °F 36.9 °F 41.0 °F 87% 29.12 in 10.0 mi WNW 18.4 mph 23.0 mph 0.09 in   Overcast
4:55 PM 44.6 °F 37.8 °F 41.0 °F 87% 29.11 in 10.0 mi West 15.0 mph 24.2 mph 0.13 in   Overcast
5:15 PM 44.6 °F 38.1 °F 41.0 °F 87% 29.09 in 10.0 mi West 13.8 mph 24.2 mph 0.04 in   Overcast
5:35 PM 44.6 °F 38.1 °F 41.0 °F 87% 29.08 in 10.0 mi WNW 13.8 mph 20.7 mph 0.10 in   Overcast
5:55 PM 44.6 °F 38.1 °F 41.0 °F 87% 29.06 in 10.0 mi West 13.8 mph - 0.15 in   Overcast
6:15 PM 44.6 °F 37.4 °F 41.0 °F 87% 29.05 in 10.0 mi West 16.1 mph 20.7 mph 0.09 in   Overcast
6:35 PM 44.6 °F 37.4 °F 41.0 °F 87% 29.03 in 10.0 mi West 16.1 mph 21.9 mph 0.17 in   Overcast
6:55 PM 44.6 °F 38.1 °F 41.0 °F 87% 29.02 in 10.0 mi West 13.8 mph 20.7 mph 0.23 in   Overcast
7:15 PM 44.6 °F 38.1 °F 41.0 °F 87% 29.00 in 10.0 mi West 13.8 mph - 0.08 in   Overcast
7:35 PM 44.6 °F 37.2 °F 41.0 °F 87% 28.99 in 10.0 mi West 17.3 mph 24.2 mph 0.13 in   Overcast
7:55 PM 44.6 °F 37.2 °F 41.0 °F 87% 28.97 in 10.0 mi West 17.3 mph 24.2 mph 0.19 in   Overcast
8:15 PM 44.6 °F 37.8 °F 41.0 °F 87% 28.96 in 10.0 mi West 15.0 mph 21.9 mph 0.06 in   Overcast
8:35 PM 44.6 °F 38.4 °F 41.0 °F 87% 28.94 in 10.0 mi West 12.7 mph 26.5 mph 0.11 in   Overcast
8:55 PM 44.6 °F 37.2 °F 41.0 °F 87% 28.95 in 10.0 mi West 17.3 mph 32.2 mph 0.14 in   Overcast
11:35 PM 42.8 °F 36.6 °F 39.2 °F 87% 28.91 in 10.0 mi WSW 11.5 mph 21.9 mph 0.04 in   Overcast
11:55 PM 42.8 °F 37.0 °F 39.2 °F 87% 28.91 in 10.0 mi WSW 10.4 mph 21.9 mph 0.05 in   Overcast